Weather History for Crockett, TX

Change the Weather History Date:

Friday, March 14, 2014

  Actual Average (KLFK) Record (KLFK)
Temperature  
Mean Temperature 62 °F 59 °F  
Max Temperature 73 °F 71 °F 90 °F (1967)
Min Temperature 50 °F 48 °F 23 °F (1993)
Degree Days  
Heating Degree Days 4 7  
Month to date heating degree days 118  
Since 1 July heating degree days 1752  
Cooling Degree Days 0 1  
Month to date cooling degree days 14  
Year to date cooling degree days 33  
Growing Degree Days 12 (Base 50)    
Moisture  
Dew Point 54 °F    
Average Humidity 72    
Maximum Humidity 88    
Minimum Humidity 53    
Precipitation  
Precipitation 0.00 in 0.12 in 3.93 in (1953)
Month to date precipitation 1.77  
Year to date precipitation 9.82  
Snow  
Snow 0.00 in - - ()
Month to date snowfall  
Since 1 July snowfall  
Snow Depth -    
Sea Level Pressure  
Sea Level Pressure 30.11 in    
Wind  
Wind Speed 2 mph (South)    
Max Wind Speed 14 mph    
Max Gust Speed 18 mph    
Visibility 10 miles    
Events      
T = Trace of Precipitation, MM = Missing Value Source: NWS Daily Summary

Daily Weather History Graph

Daily Weather History Graph

Search for Another Location

Airport:

Trip Planner

Search our weather history database for the weather conditions in past years. The results will help you decide how hot, cold, wet, or windy it might be!

Date:

Astronomy

Mar. 14, 2014 Rise Set
Actual Time 7:32 AM CDT 7:29 PM CDT
Civil Twilight 7:08 AM CDT 7:53 PM CDT
Nautical Twilight 6:40 AM CDT 8:21 PM CDT
Astronomical Twilight 6:12 AM CDT 8:49 PM CDT
Moon 5:56 PM CDT (3/14) 6:07 AM CDT (3/14)
Length of Visible Light 12h 44m
Length of Day
11h 56m
Waxing Gibbous, 96% of the Moon is Illuminated
Mar 14
Waxing Gibbous
Mar 16
Full
Mar 23
Last Quarter
Mar 30
New
Apr 7
First Quarter

Hourly Weather History & Observations

Time (CDT) Temp. Dew Point Humidity Pressure Visibility Wind Dir Wind Speed Gust Speed Precip Events Conditions
12:15 AM 53.6 °F 42.8 °F 67% 30.18 in 10.0 mi Calm Calm - N/A   Clear
12:35 AM 53.6 °F 42.8 °F 67% 30.17 in 10.0 mi South 3.5 mph - N/A   Clear
12:55 AM 53.6 °F 44.6 °F 72% 30.17 in 10.0 mi Calm Calm - N/A   Clear
1:15 AM 51.8 °F 44.6 °F 76% 30.17 in 10.0 mi Calm Calm - N/A   Clear
1:35 AM 51.8 °F 44.6 °F 76% 30.17 in 10.0 mi Calm Calm - N/A   Clear
1:55 AM 51.8 °F 44.6 °F 76% 30.17 in 10.0 mi Calm Calm - N/A   Clear
2:15 AM 51.8 °F 44.6 °F 76% 30.16 in 10.0 mi Calm Calm - N/A   Clear
2:35 AM 51.8 °F 44.6 °F 76% 30.16 in 10.0 mi Calm Calm - N/A   Clear
2:55 AM 51.8 °F 44.6 °F 76% 30.15 in 10.0 mi Calm Calm - N/A   Clear
3:15 AM 51.8 °F 44.6 °F 76% 30.15 in 10.0 mi Calm Calm - N/A   Clear
3:35 AM 51.8 °F 46.4 °F 82% 30.14 in 10.0 mi Calm Calm - N/A   Clear
3:55 AM 50.0 °F 46.4 °F 87% 30.14 in 10.0 mi Calm Calm - N/A   Clear
4:15 AM 50.0 °F 46.4 °F 87% 30.14 in 10.0 mi Calm Calm - N/A   Clear
4:35 AM 50.0 °F 46.4 °F 87% 30.13 in 10.0 mi Calm Calm - N/A   Clear
4:55 AM 51.8 °F 46.4 °F 82% 30.14 in 10.0 mi Calm Calm - N/A   Clear
5:15 AM 51.8 °F 46.4 °F 82% 30.14 in 10.0 mi Calm Calm - N/A   Clear
5:35 AM 51.8 °F 46.4 °F 82% 30.14 in 10.0 mi Calm Calm - N/A   Clear
5:55 AM 50.0 °F 46.4 °F 87% 30.13 in 10.0 mi Calm Calm - N/A   Partly Cloudy
6:15 AM 51.8 °F 48.2 °F 88% 30.14 in 10.0 mi Calm Calm - N/A   Mostly Cloudy
6:35 AM 51.8 °F 48.2 °F 88% 30.14 in 10.0 mi Calm Calm - N/A   Overcast
6:55 AM 53.6 °F 48.2 °F 82% 30.14 in 10.0 mi SE 3.5 mph - N/A   Overcast
7:15 AM 53.6 °F 50.0 °F 88% 30.14 in 10.0 mi Calm Calm - N/A   Overcast
7:35 AM 55.4 °F 51.8 °F 88% 30.13 in 10.0 mi SSE 5.8 mph - N/A   Mostly Cloudy
7:55 AM 55.4 °F 51.8 °F 88% 30.13 in 10.0 mi Calm Calm - N/A   Overcast
8:15 AM 55.4 °F 51.8 °F 88% 30.14 in 10.0 mi SSE 3.5 mph - N/A   Overcast
8:35 AM 55.4 °F 51.8 °F 88% 30.14 in 10.0 mi Calm Calm - N/A   Mostly Cloudy
8:55 AM 57.2 °F 53.6 °F 88% 30.14 in 10.0 mi SSE 4.6 mph - N/A   Scattered Clouds
9:15 AM 59.0 °F 53.6 °F 82% 30.14 in 10.0 mi SSE 8.1 mph - N/A   Clear
9:35 AM 60.8 °F 53.6 °F 77% 30.15 in 9.0 mi SSE 5.8 mph - N/A   Partly Cloudy
9:55 AM 62.6 °F 55.4 °F 77% 30.16 in 10.0 mi South 8.1 mph - N/A   Partly Cloudy
10:15 AM 64.4 °F 55.4 °F 73% 30.16 in 9.0 mi South 10.4 mph - N/A   Scattered Clouds
10:35 AM 66.2 °F 57.2 °F 73% 30.15 in 10.0 mi South 11.5 mph - N/A   Mostly Cloudy
10:55 AM 66.2 °F 57.2 °F 73% 30.16 in 10.0 mi SSE 9.2 mph - N/A   Mostly Cloudy
11:15 AM 68.0 °F 57.2 °F 68% 30.16 in 10.0 mi South 5.8 mph - N/A   Mostly Cloudy
11:35 AM 69.8 °F 57.2 °F 64% 30.15 in 9.0 mi South 9.2 mph - N/A   Mostly Cloudy
11:55 AM 69.8 °F 57.2 °F 64% 30.15 in 10.0 mi South 5.8 mph 18.4 mph N/A   Scattered Clouds
12:15 PM 71.6 °F 57.2 °F 60% 30.14 in 9.0 mi South 13.8 mph 17.3 mph N/A   Scattered Clouds
12:35 PM 71.6 °F 57.2 °F 60% 30.13 in 10.0 mi South 8.1 mph - N/A   Scattered Clouds
12:55 PM 71.6 °F 57.2 °F 60% 30.13 in 10.0 mi South 6.9 mph 17.3 mph N/A   Scattered Clouds
1:15 PM 73.4 °F 57.2 °F 57% 30.12 in 9.0 mi South 9.2 mph - N/A   Scattered Clouds
1:35 PM 71.6 °F 57.2 °F 60% 30.11 in 9.0 mi South 6.9 mph - N/A   Mostly Cloudy
1:55 PM 73.4 °F 55.4 °F 53% 30.11 in 9.0 mi South 8.1 mph - N/A   Mostly Cloudy
2:15 PM 73.4 °F 57.2 °F 57% 30.10 in 10.0 mi SSW 6.9 mph - N/A   Scattered Clouds
2:35 PM 73.4 °F 55.4 °F 53% 30.09 in 10.0 mi SSW 10.4 mph - N/A   Scattered Clouds
2:55 PM 73.4 °F 57.2 °F 57% 30.07 in 10.0 mi SSW 9.2 mph - N/A   Partly Cloudy
3:15 PM 73.4 °F 57.2 °F 57% 30.06 in 9.0 mi SSW 9.2 mph - N/A   Scattered Clouds
3:35 PM 73.4 °F 57.2 °F 57% 30.06 in 9.0 mi SSW 6.9 mph - N/A   Mostly Cloudy
3:55 PM 73.4 °F 57.2 °F 57% 30.05 in 9.0 mi South 9.2 mph - N/A   Mostly Cloudy
4:15 PM 73.4 °F 57.2 °F 57% 30.04 in 10.0 mi South 4.6 mph - N/A   Mostly Cloudy
4:35 PM 73.4 °F 57.2 °F 57% 30.04 in 10.0 mi Calm Calm - N/A   Mostly Cloudy
4:55 PM 73.4 °F 57.2 °F 57% 30.04 in 10.0 mi Calm Calm - N/A   Mostly Cloudy
5:15 PM 73.4 °F 57.2 °F 57% 30.03 in 9.0 mi Calm Calm - N/A   Mostly Cloudy
5:35 PM 73.4 °F 57.2 °F 57% 30.02 in 10.0 mi Calm Calm - N/A   Scattered Clouds
5:55 PM 73.4 °F 57.2 °F 57% 30.02 in 10.0 mi SE 3.5 mph - N/A   Partly Cloudy
6:15 PM 73.4 °F 59.0 °F 61% 30.02 in 10.0 mi SSE 4.6 mph - N/A   Scattered Clouds
6:35 PM 71.6 °F 59.0 °F 64% 30.02 in 10.0 mi Calm Calm - N/A   Scattered Clouds
6:55 PM 71.6 °F 60.8 °F 69% 30.03 in 10.0 mi SSE 4.6 mph - N/A   Mostly Cloudy
7:15 PM 71.6 °F 60.8 °F 69% 30.03 in 9.0 mi Calm Calm - N/A   Mostly Cloudy
7:35 PM 71.6 °F 60.8 °F 69% 30.03 in 10.0 mi Calm Calm - N/A   Mostly Cloudy
7:55 PM 69.8 °F 60.8 °F 73% 30.03 in 10.0 mi Calm Calm - N/A   Scattered Clouds
8:15 PM 69.8 °F 60.8 °F 73% 30.04 in 10.0 mi Calm Calm - N/A   Mostly Cloudy
8:35 PM 69.8 °F 60.8 °F 73% 30.05 in 10.0 mi Calm Calm - N/A   Overcast
8:55 PM 69.8 °F 60.8 °F 73% 30.05 in 10.0 mi Calm Calm - N/A   Overcast
9:15 PM 69.8 °F 60.8 °F 73% 30.05 in 10.0 mi Calm Calm - N/A   Overcast
9:35 PM 69.8 °F 60.8 °F 73% 30.06 in 10.0 mi Calm Calm - N/A   Mostly Cloudy
9:55 PM 69.8 °F 60.8 °F 73% 30.06 in 10.0 mi SSE 4.6 mph - N/A   Overcast
10:15 PM 69.8 °F 60.8 °F 73% 30.06 in 10.0 mi SSE 4.6 mph - N/A   Mostly Cloudy
10:35 PM 68.0 °F 60.8 °F 78% 30.06 in 10.0 mi SSE 3.5 mph - N/A   Mostly Cloudy
10:55 PM 68.0 °F 60.8 °F 78% 30.07 in 10.0 mi Calm Calm - N/A   Mostly Cloudy
11:15 PM 68.0 °F 60.8 °F 78% 30.07 in 9.0 mi Calm Calm - N/A   Overcast
11:35 PM 68.0 °F 60.8 °F 78% 30.07 in 10.0 mi Calm Calm - N/A   Mostly Cloudy
11:55 PM 68.0 °F 60.8 °F 78% 30.07 in 10.0 mi Calm Calm - N/A   Mostly Cloudy